Вернуться в каталог

FENGYUN 1C DEB

АктивенPO
NORAD 36273·DEBRIS·🇨🇳 China

Запущен May 10, 1999 с Taiyuan Satellite Launch Center

Loading…

Ближайшие Пролёты (ближайшие 24 часа)

TLE

УстаревающийSource: Space-Track

Эпоха: Sep 8, 2026, 11:59 UTC

1 36273U 99025DXA 26251.49931046  .00000276  00000-0  15628-3 0  9998
2 36273  99.5702 146.7874 0095985 316.6824  42.6830 14.16841588700532

Отслеживайте FENGYUN 1C DEB в реальном времени с AllMySat

Download on the App Store